Project,Study,Ord_Occ,Event_Num,Date_Time_UTC,Date_Time_PST,Lat_Dec,Lon_Dec,Sta_ID,Line,Sta,Depth,Pressure,Temp0,Temp1,Salt0,CorrSalt0,Salt1,CorrSalt1,O2ml/L,AveCorrO2ml/L,StaCorrO2ml/L,FluorV,AveEstChl,StaEstChl,ISUSV,AveEstNO3,StaEstNO3,SigThetaTS0,SigThetaTS1,BAT,XMiss,SPAR,PAR,BTL_Depth,BTL_Temp,BTL_Salt,BTL_O2ml/L,BTL_Chl,BTL_Pha,BTL_NO3
CalCOFI,0701JD,079,,01-Feb-2007 4:54:28 AM,31-Jan-2007 8:54:28 PM,36.45732,-122.76550,066.7 060.0,066.7,060.0,1013.000,1023.011,3.9030,3.9034,34.4522,34.4509,34.4516,34.4517,0.36420,0.41,0.41,0.0251,,,1.9503,46.76,43.825,27.3682,27.3677,0.4009,90.4620,3.5448e+00,9.9990e+03,1013,3.91 ,34.452,  .39,.00,.00,43.5
CalCOFI,0701JD,079,,01-Feb-2007 4:54:31 AM,31-Jan-2007 8:54:31 PM,36.45732,-122.76550,066.7 060.0,066.7,060.0,1012.000,1021.998,3.9033,3.9036,34.4522,34.4509,34.4515,34.4516,0.36392,0.41,0.41,0.0251,,,1.9409,46.48,43.545,27.3682,27.3676,0.4010,90.4597,3.7510e+00,9.9990e+03,,,,,,,
CalCOFI,0701JD,079,,01-Feb-2007 4:54:32 AM,31-Jan-2007 8:54:32 PM,36.45732,-122.76550,066.7 060.0,066.7,060.0,1011.000,1020.986,3.9055,3.9061,34.4522,34.4509,34.4512,34.4513,0.36286,0.41,0.41,0.0247,,,1.9441,46.58,43.640,27.3679,27.3671,0.4006,90.4702,3.8378e+00,9.9990e+03,,,,,,,
CalCOFI,0701JD,079,,01-Feb-2007 4:54:33 AM,31-Jan-2007 8:54:33 PM,36.45732,-122.76550,066.7 060.0,066.7,060.0,1010.000,1019.974,3.9105,3.9113,34.4518,34.4505,34.4509,34.4510,0.36337,0.41,0.41,0.0250,,,1.9575,46.97,44.040,27.3671,27.3663,0.4013,90.4548,3.3677e+00,9.9990e+03,,,,,,,
CalCOFI,0701JD,079,,01-Feb-2007 4:54:33 AM,31-Jan-2007 8:54:33 PM,36.45732,-122.76550,066.7 060.0,066.7,060.0,1009.000,1018.961,3.9122,3.9127,34.4507,34.4494,34.4500,34.4501,0.36252,0.41,0.41,0.0256,,,1.9856,47.80,44.878,27.3661,27.3655,0.4016,90.4475,3.6211e+00,9.9990e+03,,,,,,,
CalCOFI,0701JD,079,,01-Feb-2007 4:54:34 AM,31-Jan-2007 8:54:34 PM,36.45732,-122.76550,066.7 060.0,066.7,060.0,1008.000,1017.949,3.9126,3.9131,34.4500,34.4487,34.4495,34.4496,0.36100,0.41,0.40,0.0248,,,2.0002,48.22,45.314,27.3654,27.3650,0.4015,90.4501,3.7397e+00,9.9990e+03,,,,,,,
CalCOFI,0701JD,079,,01-Feb-2007 4:54:35 AM,31-Jan-2007 8:54:35 PM,36.45732,-122.76550,066.7 060.0,066.7,060.0,1007.000,1016.937,3.9128,3.9134,34.4497,34.4484,34.4491,34.4492,0.36107,0.41,0.41,0.0252,,,1.9452,46.61,43.673,27.3652,27.3646,0.4014,90.4514,3.5256e+00,9.9990e+03,,,,,,,
CalCOFI,0701JD,079,,01-Feb-2007 4:54:36 AM,31-Jan-2007 8:54:36 PM,36.45732,-122.76550,066.7 060.0,066.7,060.0,1006.000,1015.924,3.9146,3.9152,34.4497,34.4484,34.4488,34.4489,0.35996,0.40,0.40,0.0253,,,1.9596,47.03,44.102,27.3650,27.3642,0.4013,90.4543,3.3245e+00,9.9990e+03,,,,,,,
CalCOFI,0701JD,079,,01-Feb-2007 4:54:37 AM,31-Jan-2007 8:54:37 PM,36.45732,-122.76550,066.7 060.0,066.7,060.0,1005.000,1014.912,3.9162,3.9166,34.4494,34.4481,34.4485,34.4486,0.35934,0.40,0.40,0.0252,,,1.9429,46.54,43.604,27.3646,27.3638,0.4010,90.4594,3.4528e+00,9.9990e+03,,,,,,,
CalCOFI,0701JD,079,,01-Feb-2007 4:54:40 AM,31-Jan-2007 8:54:40 PM,36.45732,-122.76550,066.7 060.0,066.7,060.0,1004.000,1013.900,3.9148,3.9159,34.4497,34.4484,34.4488,34.4489,0.35739,0.40,0.40,0.0252,,,1.9771,47.55,44.625,27.3649,27.3641,0.4019,90.4412,3.7850e+00,9.9990e+03,,,,,,,
CalCOFI,0701JD,079,,01-Feb-2007 4:54:41 AM,31-Jan-2007 8:54:41 PM,36.45732,-122.76550,066.7 060.0,066.7,060.0,1003.000,1012.887,3.9190,3.9200,34.4496,34.4483,34.4486,34.4487,0.35716,0.40,0.40,0.0248,,,1.9614,47.08,44.156,27.3644,27.3635,0.4010,90.4599,3.0073e+00,9.9990e+03,,,,,,,
CalCOFI,0701JD,079,,01-Feb-2007 4:54:42 AM,31-Jan-2007 8:54:42 PM,36.45732,-122.76550,066.7 060.0,066.7,060.0,1002.000,1011.875,3.9216,3.9223,34.4491,34.4478,34.4483,34.4484,0.35651,0.40,0.40,0.0248,,,1.9421,46.52,43.580,27.3638,27.3630,0.4017,90.4448,3.7444e+00,9.9990e+03,,,,,,,
CalCOFI,0701JD,079,,01-Feb-2007 4:54:42 AM,31-Jan-2007 8:54:42 PM,36.45732,-122.76550,066.7 060.0,066.7,060.0,1001.000,1010.863,3.9258,3.9261,34.4491,34.4478,34.4483,34.4484,0.35563,0.40,0.40,0.0251,,,1.9278,46.10,43.154,27.3633,27.3626,0.4012,90.4564,3.5519e+00,9.9990e+03,,,,,,,
CalCOFI,0701JD,079,,01-Feb-2007 4:54:43 AM,31-Jan-2007 8:54:43 PM,36.45732,-122.76550,066.7 060.0,066.7,060.0,1000.000,1009.850,3.9309,3.9309,34.4489,34.4476,34.4480,34.4481,0.35555,0.40,0.40,0.0252,,,1.9224,45.94,42.993,27.3627,27.3619,0.4012,90.4554,4.1475e+00,9.9990e+03,,,,,,,
CalCOFI,0701JD,079,,01-Feb-2007 4:54:44 AM,31-Jan-2007 8:54:44 PM,36.45732,-122.76550,066.7 060.0,066.7,060.0,999.000,1008.838,3.9353,3.9360,34.4484,34.4471,34.4476,34.4477,0.35419,0.40,0.40,0.0256,,,1.9223,45.94,42.990,27.3618,27.3611,0.4019,90.4409,3.7332e+00,9.9990e+03,,,,,,,
CalCOFI,0701JD,079,,01-Feb-2007 4:54:45 AM,31-Jan-2007 8:54:45 PM,36.45732,-122.76550,066.7 060.0,066.7,060.0,998.000,1007.826,3.9386,3.9397,34.4483,34.4470,34.4475,34.4476,0.35381,0.40,0.40,0.0256,,,1.8955,45.15,42.190,27.3613,27.3606,0.4015,90.4502,3.9342e+00,9.9990e+03,,,,,,,
CalCOFI,0701JD,079,,01-Feb-2007 4:54:46 AM,31-Jan-2007 8:54:46 PM,36.45732,-122.76543,066.7 060.0,066.7,060.0,997.000,1006.814,3.9453,3.9461,34.4480,34.4467,34.4471,34.4472,0.35351,0.40,0.40,0.0250,,,1.8973,45.20,42.244,27.3604,27.3596,0.4016,90.4479,3.5015e+00,9.9990e+03,,,,,,,
CalCOFI,0701JD,079,,01-Feb-2007 4:54:47 AM,31-Jan-2007 8:54:47 PM,36.45732,-122.76534,066.7 060.0,066.7,060.0,996.000,1005.801,3.9481,3.9487,34.4476,34.4463,34.4469,34.4470,0.35234,0.40,0.39,0.0251,,,1.9488,46.71,43.780,27.3598,27.3592,0.4022,90.4326,3.6839e+00,9.9990e+03,,,,,,,
CalCOFI,0701JD,079,,01-Feb-2007 4:54:49 AM,31-Jan-2007 8:54:49 PM,36.45732,-122.76534,066.7 060.0,066.7,060.0,995.000,1004.789,3.9505,3.9497,34.4474,34.4461,34.4467,34.4468,0.35118,0.39,0.39,0.0248,,,1.9421,46.52,43.580,27.3594,27.3590,0.4016,90.4466,3.3541e+00,9.9990e+03,,,,,,,
CalCOFI,0701JD,079,,01-Feb-2007 4:54:49 AM,31-Jan-2007 8:54:49 PM,36.45732,-122.76534,066.7 060.0,066.7,060.0,994.000,1003.777,3.9522,3.9526,34.4472,34.4459,34.4466,34.4467,0.35143,0.39,0.39,0.0249,,,1.9116,45.62,42.670,27.3591,27.3586,0.4015,90.4493,3.3389e+00,9.9990e+03,,,,,,,
CalCOFI,0701JD,079,,01-Feb-2007 4:54:50 AM,31-Jan-2007 8:54:50 PM,36.45732,-122.76534,066.7 060.0,066.7,060.0,993.000,1002.765,3.9537,3.9542,34.4470,34.4457,34.4465,34.4466,0.35064,0.39,0.39,0.0249,,,1.9121,45.64,42.685,27.3588,27.3583,0.4014,90.4525,3.6696e+00,9.9990e+03,,,,,,,
CalCOFI,0701JD,079,,01-Feb-2007 4:54:51 AM,31-Jan-2007 8:54:51 PM,36.45732,-122.76534,066.7 060.0,066.7,060.0,992.000,1001.752,3.9552,3.9557,34.4471,34.4458,34.4464,34.4465,0.35101,0.39,0.39,0.0252,,,1.9326,46.24,43.297,27.3587,27.3581,0.4016,90.4459,3.7520e+00,9.9990e+03,,,,,,,
CalCOFI,0701JD,079,,01-Feb-2007 4:54:52 AM,31-Jan-2007 8:54:52 PM,36.45732,-122.76534,066.7 060.0,066.7,060.0,991.000,1000.740,3.9560,3.9568,34.4471,34.4458,34.4464,34.4465,0.35013,0.39,0.39,0.0255,,,1.9463,46.64,43.706,27.3586,27.3580,0.4013,90.4538,3.1089e+00,9.9990e+03,,,,,,,
CalCOFI,0701JD,079,,01-Feb-2007 4:54:53 AM,31-Jan-2007 8:54:53 PM,36.45732,-122.76534,066.7 060.0,066.7,060.0,990.000,999.728,3.9598,3.9604,34.4469,34.4456,34.4461,34.4462,0.34954,0.39,0.39,0.0253,,,1.9458,46.63,43.691,27.3580,27.3573,0.4014,90.4515,3.9255e+00,9.9990e+03,,,,,,,
CalCOFI,0701JD,079,,01-Feb-2007 4:54:54 AM,31-Jan-2007 8:54:54 PM,36.45732,-122.76534,066.7 060.0,066.7,060.0,989.000,998.716,3.9641,3.9643,34.4466,34.4453,34.4457,34.4458,0.34834,0.39,0.39,0.0252,,,1.9367,46.36,43.419,27.3574,27.3566,0.4014,90.4505,3.6841e+00,9.9990e+03,,,,,,,
CalCOFI,0701JD,079,,01-Feb-2007 4:54:55 AM,31-Jan-2007 8:54:55 PM,36.45732,-122.76534,066.7 060.0,066.7,060.0,988.000,997.703,3.9703,3.9702,34.4463,34.4450,34.4454,34.4455,0.34800,0.39,0.39,0.0251,,,1.9701,47.34,44.416,27.3565,27.3558,0.4015,90.4484,3.2734e+00,9.9990e+03,,,,,,,
CalCOFI,0701JD,079,,01-Feb-2007 4:54:56 AM,31-Jan-2007 8:54:56 PM,36.45732,-122.76534,066.7 060.0,066.7,060.0,987.000,996.691,3.9728,3.9731,34.4462,34.4449,34.4455,34.4456,0.34799,0.39,0.39,0.0256,,,1.9694,47.32,44.395,27.3561,27.3556,0.4016,90.4481,3.5801e+00,9.9990e+03,,,,,,,
CalCOFI,0701JD,079,,01-Feb-2007 4:54:57 AM,31-Jan-2007 8:54:57 PM,36.45732,-122.76534,066.7 060.0,066.7,060.0,986.000,995.679,3.9741,3.9743,34.4461,34.4448,34.4455,34.4456,0.34748,0.39,0.39,0.0254,,,1.9361,46.34,43.401,27.3559,27.3554,0.4015,90.4503,3.1651e+00,9.9990e+03,,,,,,,
CalCOFI,0701JD,079,,01-Feb-2007 4:54:58 AM,31-Jan-2007 8:54:58 PM,36.45732,-122.76534,066.7 060.0,066.7,060.0,985.000,994.667,3.9749,3.9752,34.4460,34.4447,34.4455,34.4456,0.34726,0.39,0.39,0.0253,,,1.9458,46.63,43.691,27.3557,27.3553,0.4017,90.4436,3.6629e+00,9.9990e+03,,,,,,,
CalCOFI,0701JD,079,,01-Feb-2007 4:54:59 AM,31-Jan-2007 8:54:59 PM,36.45732,-122.76534,066.7 060.0,066.7,060.0,984.000,993.654,3.9757,3.9763,34.4460,34.4447,34.4454,34.4455,0.34641,0.39,0.39,0.0249,,,1.9620,47.10,44.174,27.3556,27.3551,0.4015,90.4493,3.6854e+00,9.9990e+03,,,,,,,
CalCOFI,0701JD,079,,01-Feb-2007 4:55:00 AM,31-Jan-2007 8:55:00 PM,36.45732,-122.76534,066.7 060.0,066.7,060.0,983.000,992.642,3.9760,3.9766,34.4460,34.4447,34.4452,34.4453,0.34713,0.39,0.39,0.0254,,,1.9459,46.63,43.694,27.3556,27.3549,0.4020,90.4386,3.8341e+00,9.9990e+03,,,,,,,
CalCOFI,0701JD,079,,01-Feb-2007 4:55:02 AM,31-Jan-2007 8:55:02 PM,36.45732,-122.76534,066.7 060.0,066.7,060.0,982.000,991.630,3.9765,3.9768,34.4458,34.4445,34.4451,34.4452,0.34686,0.39,0.39,0.0249,,,1.9266,46.06,43.118,27.3554,27.3548,0.4019,90.4392,3.7037e+00,9.9990e+03,,,,,,,
CalCOFI,0701JD,079,,01-Feb-2007 4:55:03 AM,31-Jan-2007 8:55:03 PM,36.45732,-122.76534,066.7 060.0,066.7,060.0,981.000,990.618,3.9774,3.9777,34.4458,34.4445,34.4452,34.4453,0.34639,0.39,0.39,0.0253,,,1.9387,46.42,43.479,27.3553,27.3548,0.4015,90.4483,3.9394e+00,9.9990e+03,,,,,,,
CalCOFI,0701JD,079,,01-Feb-2007 4:55:04 AM,31-Jan-2007 8:55:04 PM,36.45732,-122.76534,066.7 060.0,066.7,060.0,980.000,989.606,3.9788,3.9794,34.4457,34.4444,34.4452,34.4453,0.34624,0.39,0.39,0.0253,,,1.9270,46.08,43.130,27.3551,27.3546,0.4015,90.4487,3.6320e+00,9.9990e+03,,,,,,,
CalCOFI,0701JD,079,,01-Feb-2007 4:55:04 AM,31-Jan-2007 8:55:04 PM,36.45732,-122.76534,066.7 060.0,066.7,060.0,979.000,988.594,3.9798,3.9802,34.4457,34.4444,34.4452,34.4453,0.34522,0.39,0.39,0.0250,,,1.9177,45.80,42.852,27.3550,27.3545,0.4019,90.4407,3.1244e+00,9.9990e+03,,,,,,,
CalCOFI,0701JD,079,,01-Feb-2007 4:55:05 AM,31-Jan-2007 8:55:05 PM,36.45732,-122.76534,066.7 060.0,066.7,060.0,978.000,987.581,3.9818,3.9822,34.4455,34.4442,34.4450,34.4451,0.34602,0.39,0.39,0.0252,,,1.9723,47.40,44.481,27.3546,27.3542,0.4019,90.4406,3.5991e+00,9.9990e+03,,,,,,,
CalCOFI,0701JD,079,,01-Feb-2007 4:55:06 AM,31-Jan-2007 8:55:06 PM,36.45732,-122.76534,066.7 060.0,066.7,060.0,977.000,986.569,3.9826,3.9831,34.4454,34.4441,34.4448,34.4449,0.34523,0.39,0.39,0.0251,,,1.9783,47.58,44.660,27.3544,27.3539,0.4016,90.4465,3.3281e+00,9.9990e+03,,,,,,,
CalCOFI,0701JD,079,,01-Feb-2007 4:55:06 AM,31-Jan-2007 8:55:06 PM,36.45732,-122.76534,066.7 060.0,066.7,060.0,976.000,985.557,3.9829,3.9834,34.4453,34.4440,34.4448,34.4449,0.34635,0.39,0.39,0.0251,,,1.9893,47.90,44.989,27.3543,27.3538,0.4014,90.4515,3.7189e+00,9.9990e+03,,,,,,,
CalCOFI,0701JD,079,,01-Feb-2007 4:55:07 AM,31-Jan-2007 8:55:07 PM,36.45732,-122.76534,066.7 060.0,066.7,060.0,975.000,984.545,3.9836,3.9841,34.4450,34.4437,34.4445,34.4446,0.34417,0.39,0.38,0.0250,,,1.9721,47.40,44.475,27.3540,27.3535,0.4018,90.4415,3.9468e+00,9.9990e+03,,,,,,,
CalCOFI,0701JD,079,,01-Feb-2007 4:55:08 AM,31-Jan-2007 8:55:08 PM,36.45732,-122.76534,066.7 060.0,066.7,060.0,974.000,983.533,3.9835,3.9841,34.4450,34.4437,34.4444,34.4445,0.34416,0.39,0.38,0.0253,,,1.9586,47.00,44.073,27.3540,27.3534,0.4018,90.4423,3.4480e+00,9.9990e+03,,,,,,,
CalCOFI,0701JD,079,,01-Feb-2007 4:55:09 AM,31-Jan-2007 8:55:09 PM,36.45732,-122.76534,066.7 060.0,066.7,060.0,973.000,982.520,3.9846,3.9859,34.4447,34.4434,34.4439,34.4440,0.34359,0.38,0.38,0.0249,,,1.9461,46.64,43.700,27.3536,27.3529,0.4019,90.4405,3.5696e+00,9.9990e+03,,,,,,,
CalCOFI,0701JD,079,,01-Feb-2007 4:55:10 AM,31-Jan-2007 8:55:10 PM,36.45732,-122.76534,066.7 060.0,066.7,060.0,972.000,981.508,3.9897,3.9891,34.4439,34.4426,34.4435,34.4436,0.34278,0.38,0.38,0.0252,,,1.9246,46.00,43.058,27.3524,27.3522,0.4017,90.4447,3.7569e+00,9.9990e+03,,,,,,,
CalCOFI,0701JD,079,,01-Feb-2007 4:55:12 AM,31-Jan-2007 8:55:12 PM,-9.990e-29,-122.76534,066.7 060.0,066.7,060.0,971.000,980.496,3.9923,3.9924,34.4435,34.4422,34.4428,34.4429,0.34087,0.38,0.38,0.0250,,,1.9674,47.26,44.335,27.3519,27.3513,0.4017,90.4454,3.4828e+00,9.9990e+03,,,,,,,
CalCOFI,0701JD,079,,01-Feb-2007 4:55:14 AM,31-Jan-2007 8:55:14 PM,36.45748,-122.76534,066.7 060.0,066.7,060.0,970.000,979.484,3.9961,3.9945,34.4429,34.4416,34.4425,34.4426,0.33941,0.38,0.38,0.0252,,,1.9603,47.05,44.123,27.3510,27.3509,0.4016,90.4466,3.9139e+00,9.9990e+03,,,,,,,
CalCOFI,0701JD,079,,01-Feb-2007 4:55:15 AM,31-Jan-2007 8:55:15 PM,36.45748,-122.76534,066.7 060.0,066.7,060.0,969.000,978.472,3.9998,4.0000,34.4425,34.4412,34.4417,34.4418,0.33950,0.38,0.38,0.0251,,,1.9644,47.17,44.246,27.3503,27.3497,0.4013,90.4529,3.4431e+00,9.9990e+03,,,,,,,
CalCOFI,0701JD,079,,01-Feb-2007 4:55:16 AM,31-Jan-2007 8:55:16 PM,36.45748,-122.76534,066.7 060.0,066.7,060.0,968.000,977.460,4.0022,4.0024,34.4424,34.4411,34.4419,34.4420,0.33922,0.38,0.38,0.0252,,,1.9569,46.95,44.022,27.3499,27.3495,0.4015,90.4484,3.9700e+00,9.9990e+03,,,,,,,
CalCOFI,0701JD,079,,01-Feb-2007 4:55:17 AM,31-Jan-2007 8:55:17 PM,36.45748,-122.76534,066.7 060.0,066.7,060.0,967.000,976.448,4.0038,4.0044,34.4422,34.4409,34.4415,34.4416,0.33889,0.38,0.38,0.0247,,,1.9460,46.63,43.697,27.3496,27.3491,0.4015,90.4499,3.3120e+00,9.9990e+03,,,,,,,
CalCOFI,0701JD,079,,01-Feb-2007 4:55:17 AM,31-Jan-2007 8:55:17 PM,36.45748,-122.76534,066.7 060.0,066.7,060.0,966.000,975.436,4.0084,4.0092,34.4418,34.4405,34.4412,34.4413,0.33824,0.38,0.38,0.0252,,,1.9345,46.30,43.354,27.3488,27.3483,0.4016,90.4461,4.1223e+00,9.9990e+03,,,,,,,
CalCOFI,0701JD,079,,01-Feb-2007 4:55:18 AM,31-Jan-2007 8:55:18 PM,36.45748,-122.76534,066.7 060.0,066.7,060.0,965.000,974.423,4.0146,4.0156,34.4413,34.4400,34.4406,34.4407,0.33779,0.38,0.38,0.0250,,,1.9285,46.12,43.175,27.3478,27.3471,0.4017,90.4439,3.3907e+00,9.9990e+03,,,,,,,
CalCOFI,0701JD,079,,01-Feb-2007 4:55:18 AM,31-Jan-2007 8:55:18 PM,36.45748,-122.76534,066.7 060.0,066.7,060.0,964.000,973.411,4.0221,4.0238,34.4411,34.4398,34.4399,34.4400,0.33594,0.38,0.37,0.0253,,,1.9436,46.56,43.625,27.3468,27.3458,0.4019,90.4399,4.0050e+00,9.9990e+03,,,,,,,
CalCOFI,0701JD,079,,01-Feb-2007 4:55:19 AM,31-Jan-2007 8:55:19 PM,36.45748,-122.76534,066.7 060.0,066.7,060.0,963.000,972.399,4.0250,4.0257,34.4405,34.4392,34.4401,34.4402,0.33644,0.38,0.37,0.0251,,,1.9505,46.76,43.831,27.3461,27.3457,0.4020,90.4373,3.6985e+00,9.9990e+03,,,,,,,
CalCOFI,0701JD,079,,01-Feb-2007 4:55:19 AM,31-Jan-2007 8:55:19 PM,36.45748,-122.76534,066.7 060.0,066.7,060.0,962.000,971.387,4.0255,4.0261,34.4406,34.4393,34.4403,34.4404,0.33489,0.37,0.37,0.0251,,,1.9424,46.53,43.589,27.3461,27.3458,0.4023,90.4314,3.4803e+00,9.9990e+03,,,,,,,
CalCOFI,0701JD,079,,01-Feb-2007 4:55:20 AM,31-Jan-2007 8:55:20 PM,36.45748,-122.76524,066.7 060.0,066.7,060.0,961.000,970.375,4.0259,4.0267,34.4409,34.4396,34.4403,34.4404,0.33546,0.37,0.37,0.0253,,,1.9393,46.44,43.497,27.3462,27.3457,0.4020,90.4371,3.5619e+00,9.9990e+03,,,,,,,
CalCOFI,0701JD,079,,01-Feb-2007 4:55:22 AM,31-Jan-2007 8:55:22 PM,36.45748,-122.76518,066.7 060.0,066.7,060.0,960.000,969.363,4.0241,4.0264,34.4410,34.4397,34.4403,34.4404,0.33404,0.37,0.37,0.0253,,,1.9436,46.56,43.625,27.3465,27.3458,0.4022,90.4333,3.4210e+00,9.9990e+03,,,,,,,
CalCOFI,0701JD,079,,01-Feb-2007 4:55:25 AM,31-Jan-2007 8:55:25 PM,36.45748,-122.76518,066.7 060.0,066.7,060.0,959.000,968.351,4.0250,4.0269,34.4409,34.4396,34.4403,34.4404,0.33302,0.37,0.37,0.0251,,,1.9379,46.39,43.455,27.3464,27.3457,0.4020,90.4369,3.6316e+00,9.9990e+03,,,,,,,
CalCOFI,0701JD,079,,01-Feb-2007 4:55:26 AM,31-Jan-2007 8:55:26 PM,36.45748,-122.76518,066.7 060.0,066.7,060.0,958.000,967.339,4.0293,4.0297,34.4406,34.4393,34.4400,34.4401,0.33224,0.37,0.37,0.0247,,,1.9369,46.37,43.425,27.3456,27.3452,0.4017,90.4456,3.6866e+00,9.9990e+03,,,,,,,
CalCOFI,0701JD,079,,01-Feb-2007 4:55:27 AM,31-Jan-2007 8:55:27 PM,36.45748,-122.76518,066.7 060.0,066.7,060.0,957.000,966.327,4.0306,4.0307,34.4403,34.4390,34.4400,34.4401,0.33214,0.37,0.37,0.0254,,,1.9260,46.05,43.100,27.3453,27.3450,0.4018,90.4420,3.3799e+00,9.9990e+03,,,,,,,
CalCOFI,0701JD,079,,01-Feb-2007 4:55:28 AM,31-Jan-2007 8:55:28 PM,36.45748,-122.76518,066.7 060.0,066.7,060.0,956.000,965.314,4.0356,4.0359,34.4402,34.4389,34.4395,34.4396,0.33066,0.37,0.37,0.0255,,,1.9148,45.72,42.766,27.3447,27.3441,0.4018,90.4424,3.3341e+00,9.9990e+03,,,,,,,
CalCOFI,0701JD,079,,01-Feb-2007 4:55:29 AM,31-Jan-2007 8:55:29 PM,36.45748,-122.76518,066.7 060.0,066.7,060.0,955.000,964.302,4.0462,4.0478,34.4393,34.4380,34.4385,34.4386,0.33080,0.37,0.37,0.0253,,,1.9364,46.35,43.410,27.3429,27.3421,0.4019,90.4392,3.9491e+00,9.9990e+03,,,,,,,
CalCOFI,0701JD,079,,01-Feb-2007 4:55:29 AM,31-Jan-2007 8:55:29 PM,36.45748,-122.76518,066.7 060.0,066.7,060.0,954.000,963.290,4.0504,4.0512,34.4390,34.4377,34.4383,34.4384,0.32976,0.37,0.37,0.0250,,,1.9499,46.75,43.813,27.3422,27.3416,0.4021,90.4350,3.5834e+00,9.9990e+03,,,,,,,
CalCOFI,0701JD,079,,01-Feb-2007 4:55:30 AM,31-Jan-2007 8:55:30 PM,36.45748,-122.76518,066.7 060.0,066.7,060.0,953.000,962.278,4.0532,4.0539,34.4389,34.4376,34.4385,34.4386,0.32896,0.37,0.37,0.0255,,,1.9653,47.20,44.272,27.3419,27.3415,0.4019,90.4407,3.2384e+00,9.9990e+03,,,,,,,
CalCOFI,0701JD,079,,01-Feb-2007 4:55:31 AM,31-Jan-2007 8:55:31 PM,36.45748,-122.76518,066.7 060.0,066.7,060.0,952.000,961.266,4.0556,4.0562,34.4391,34.4378,34.4386,34.4387,0.32904,0.37,0.37,0.0253,,,1.9414,46.50,43.559,27.3417,27.3413,0.4025,90.4269,3.9424e+00,9.9990e+03,,,,,,,
CalCOFI,0701JD,079,,01-Feb-2007 4:55:31 AM,31-Jan-2007 8:55:31 PM,36.45748,-122.76518,066.7 060.0,066.7,060.0,951.000,960.254,4.0580,4.0583,34.4390,34.4377,34.4387,34.4388,0.32796,0.37,0.36,0.0254,,,1.9213,45.91,42.960,27.3414,27.3411,0.4021,90.4353,3.7464e+00,9.9990e+03,,,,,,,
CalCOFI,0701JD,079,,01-Feb-2007 4:55:32 AM,31-Jan-2007 8:55:32 PM,36.45748,-122.76518,066.7 060.0,066.7,060.0,950.000,959.242,4.0590,4.0596,34.4391,34.4378,34.4386,34.4387,0.32794,0.37,0.36,0.0253,,,1.8980,45.22,42.265,27.3414,27.3409,0.4021,90.4347,3.5997e+00,9.9990e+03,,,,,,,
CalCOFI,0701JD,079,,01-Feb-2007 4:55:34 AM,31-Jan-2007 8:55:34 PM,36.45748,-122.76518,066.7 060.0,066.7,060.0,949.000,958.230,4.0587,4.0598,34.4392,34.4379,34.4387,34.4388,0.32769,0.37,0.36,0.0252,,,1.9298,46.16,43.213,27.3415,27.3410,0.4024,90.4300,3.5124e+00,9.9990e+03,,,,,,,
CalCOFI,0701JD,079,,01-Feb-2007 4:55:36 AM,31-Jan-2007 8:55:36 PM,36.45748,-122.76518,066.7 060.0,066.7,060.0,948.000,957.218,4.0616,4.0622,34.4392,34.4379,34.4384,34.4385,-9.990e-29,,0.36,0.0252,,,1.9469,46.66,43.724,27.3411,27.3405,0.4025,90.4257,3.7081e+00,9.9990e+03,,,,,,,
CalCOFI,0701JD,079,,01-Feb-2007 4:55:37 AM,31-Jan-2007 8:55:37 PM,36.45748,-122.76518,066.7 060.0,066.7,060.0,947.000,956.206,4.0657,4.0660,34.4391,34.4378,34.4385,34.4386,-9.990e-29,,0.36,0.0252,,,1.9489,46.72,43.783,27.3407,27.3402,0.4024,90.4300,3.4070e+00,9.9990e+03,,,,,,,
CalCOFI,0701JD,079,,01-Feb-2007 4:55:38 AM,31-Jan-2007 8:55:38 PM,36.45748,-122.76518,066.7 060.0,066.7,060.0,946.000,955.194,4.0664,4.0669,34.4389,34.4376,34.4386,34.4387,0.32681,0.36,0.36,0.0252,,,1.9446,46.59,43.655,27.3405,27.3401,0.4019,90.4399,3.9860e+00,9.9990e+03,,,,,,,
CalCOFI,0701JD,079,,01-Feb-2007 4:55:39 AM,31-Jan-2007 8:55:39 PM,36.45748,-122.76518,066.7 060.0,066.7,060.0,945.000,954.182,4.0659,4.0664,34.4388,34.4375,34.4384,34.4385,0.32661,0.36,0.36,0.0253,,,1.9306,46.18,43.237,27.3404,27.3400,0.4022,90.4338,3.7831e+00,9.9990e+03,,,,,,,
CalCOFI,0701JD,079,,01-Feb-2007 4:55:41 AM,31-Jan-2007 8:55:41 PM,36.45748,-122.76518,066.7 060.0,066.7,060.0,944.000,953.170,4.0677,4.0678,34.4389,34.4376,34.4384,34.4385,0.32566,0.36,0.36,0.0251,,,1.9611,47.08,44.147,27.3403,27.3398,0.4023,90.4310,3.8424e+00,9.9990e+03,,,,,,,
CalCOFI,0701JD,079,,01-Feb-2007 4:55:42 AM,31-Jan-2007 8:55:42 PM,36.45748,-122.76518,066.7 060.0,066.7,060.0,943.000,952.158,4.0701,4.0700,34.4387,34.4374,34.4383,34.4384,0.32507,0.36,0.36,0.0249,,,1.9630,47.13,44.204,27.3399,27.3395,0.4022,90.4326,3.7469e+00,9.9990e+03,,,,,,,
CalCOFI,0701JD,079,,01-Feb-2007 4:55:42 AM,31-Jan-2007 8:55:42 PM,36.45748,-122.76518,066.7 060.0,066.7,060.0,942.000,951.146,4.0714,4.0718,34.4384,34.4371,34.4381,34.4382,0.32366,0.36,0.36,0.0254,,,1.9328,46.25,43.303,27.3395,27.3392,0.4018,90.4414,3.3839e+00,9.9990e+03,,,,,,,
CalCOFI,0701JD,079,,01-Feb-2007 4:55:43 AM,31-Jan-2007 8:55:43 PM,36.45748,-122.76518,066.7 060.0,066.7,060.0,941.000,950.134,4.0767,4.0774,34.4377,34.4364,34.4373,34.4374,0.32402,0.36,0.36,0.0253,,,1.9236,45.98,43.028,27.3384,27.3379,0.4022,90.4339,3.5022e+00,9.9990e+03,,,,,,,
CalCOFI,0701JD,079,,01-Feb-2007 4:55:44 AM,31-Jan-2007 8:55:44 PM,36.45748,-122.76518,066.7 060.0,066.7,060.0,940.000,949.122,4.0785,4.0790,34.4372,34.4359,34.4368,34.4369,0.32373,0.36,0.36,0.0248,,,1.9304,46.17,43.231,27.3378,27.3374,0.4022,90.4340,3.5009e+00,9.9990e+03,,,,,,,
CalCOFI,0701JD,079,,01-Feb-2007 4:55:45 AM,31-Jan-2007 8:55:45 PM,36.45748,-122.76518,066.7 060.0,066.7,060.0,939.000,948.110,4.0781,4.0785,34.4369,34.4356,34.4366,34.4367,0.32317,0.36,0.36,0.0255,,,1.9410,46.49,43.548,27.3376,27.3373,0.4023,90.4315,3.8339e+00,9.9990e+03,,,,,,,
CalCOFI,0701JD,079,,01-Feb-2007 4:55:46 AM,31-Jan-2007 8:55:46 PM,36.45748,-122.76518,066.7 060.0,066.7,060.0,938.000,947.098,4.0788,4.0792,34.4364,34.4351,34.4359,34.4360,0.32263,0.36,0.36,0.0250,,,1.9482,46.70,43.762,27.3371,27.3366,0.4027,90.4226,3.8397e+00,9.9990e+03,,,,,,,
CalCOFI,0701JD,079,,01-Feb-2007 4:55:48 AM,31-Jan-2007 8:55:48 PM,36.45748,-122.76518,066.7 060.0,066.7,060.0,937.000,946.086,4.0793,4.0811,34.4366,34.4353,34.4359,34.4360,0.32118,0.36,0.36,0.0254,,,1.9564,46.94,44.007,27.3372,27.3365,0.4025,90.4260,3.6283e+00,9.9990e+03,,,,,,,
CalCOFI,0701JD,079,,01-Feb-2007 4:55:50 AM,31-Jan-2007 8:55:50 PM,36.45748,-122.76518,066.7 060.0,066.7,060.0,936.000,945.074,4.0846,4.0845,34.4359,34.4346,34.4353,34.4354,0.31929,0.36,0.35,0.0252,,,1.9235,45.97,43.025,27.3361,27.3356,0.4022,90.4325,3.5271e+00,9.9990e+03,,,,,,,
CalCOFI,0701JD,079,,01-Feb-2007 4:55:51 AM,31-Jan-2007 8:55:51 PM,36.45748,-122.76518,066.7 060.0,066.7,060.0,935.000,944.062,4.0867,4.0871,34.4349,34.4336,34.4349,34.4350,0.31919,0.35,0.35,0.0248,,,1.9497,46.74,43.807,27.3351,27.3350,0.4023,90.4315,3.7698e+00,9.9990e+03,,,,,,,
CalCOFI,0701JD,079,,01-Feb-2007 4:55:52 AM,31-Jan-2007 8:55:52 PM,36.45748,-122.76518,066.7 060.0,066.7,060.0,934.000,943.050,4.0894,4.0889,34.4343,34.4330,34.4337,34.4338,0.31704,0.35,0.35,0.0252,,,1.9446,46.59,43.655,27.3343,27.3338,0.4023,90.4308,3.3499e+00,9.9990e+03,,,,,,,
CalCOFI,0701JD,079,,01-Feb-2007 4:55:53 AM,31-Jan-2007 8:55:53 PM,36.45748,-122.76518,066.7 060.0,066.7,060.0,933.000,942.038,4.1031,4.1028,34.4332,34.4319,34.4325,34.4326,0.31621,0.35,0.35,0.0252,,,1.9373,46.38,43.437,27.3320,27.3315,0.4024,90.4290,3.3833e+00,9.9990e+03,,,,,,,
CalCOFI,0701JD,079,,01-Feb-2007 4:55:54 AM,31-Jan-2007 8:55:54 PM,36.45748,-122.76518,066.7 060.0,066.7,060.0,932.000,941.026,4.1098,4.1108,34.4326,34.4313,34.4320,34.4321,0.31432,0.35,0.35,0.0254,,,1.9256,46.03,43.088,27.3308,27.3303,0.4021,90.4347,3.9553e+00,9.9990e+03,,,,,,,
CalCOFI,0701JD,079,,01-Feb-2007 4:55:55 AM,31-Jan-2007 8:55:55 PM,36.45748,-122.76518,066.7 060.0,066.7,060.0,931.000,940.014,4.1133,4.1140,34.4325,34.4312,34.4321,34.4322,0.31448,0.35,0.35,0.0256,,,1.9109,45.60,42.650,27.3304,27.3300,0.4026,90.4253,3.7368e+00,9.9990e+03,,,,,,,
CalCOFI,0701JD,079,,01-Feb-2007 4:55:55 AM,31-Jan-2007 8:55:55 PM,36.45748,-122.76518,066.7 060.0,066.7,060.0,930.000,939.002,4.1166,4.1174,34.4325,34.4312,34.4321,34.4322,0.31248,0.35,0.35,0.0252,,,1.9477,46.68,43.747,27.3300,27.3296,0.4027,90.4229,3.2406e+00,9.9990e+03,,,,,,,